パンスターズ彗星

C/2014 R3 ( PanSTARRS )

English version
Home page
Updated on February 13, 2018

---------------------------------------------------------------------

・ プロフィール

発見日 2014年9月6日
発見光度 20.1等
発見者 Pan-STARRS 1 telescope (Haleakala)

・ 写真集

・ 軌道要素

Epoch 2016 July 31.0 TT = JDT 2457600.5
T 2016 Aug. 7.89280 TT                                  MPCW
q   7.2753921            (2000.0)            P               Q
z  +0.0000152      Peri.  113.40087     -0.36316347     -0.82311832
 +/-0.0000005      Node   334.11215     -0.21699636     +0.53039090
e   0.9998892      Incl.   90.83748     +0.90610423     -0.20288352
From 585 observations 2014 Sept. 6-2018 Jan. 26, mean residual 0".4.

・ 光度変化

        m1 = -22 + 5 logΔ + 40 log r(t - 50)

---------------------------------------------------------------------

軌道要素はM.P.E.C. 2018-B155に掲載されたものです。
光度グラフはComet for Windowsで作成したものです。

---------------------------------------------------------------------

Copyright(C) Seiichi Yoshida (comet@aerith.net). All rights reserved.